Location: Newark
(49.8348°N, 24.0280°E)
Time: 11:20:01
(UTC+00:00)

Explorer 7 - Pass Details

Date: 24 January 2020
Orbit: 485 x 679 km, 50.3° (Epoch: 25 February)

Event Time Altitude Azimuth Distance (km) Brightness Sun altitude
Rises 22:33:39 0° 247° (WSW) 2,550 - -59.3°
Reaches altitude 10° 22:35:49 10° 245° (WSW) 1,666 - -59.3°
Maximum altitude 22:39:32 69° 162° (SSE) 523 - -59.3°
Drops below altitude 10° 22:43:19 10° 79° (E) 1,689 - -59.3°
Sets 22:45:32 0° 77° (ENE) 2,590 - -59.3°
